Location: Sungai Liu
(2.3667°N, 113.8667°E)
Time: 13:23:37
(UTC+00:00)

DELTA 2 R/B (1) - Pass Details

Date: 20 May 2022
Orbit: 791 x 802 km, 39.6° (Epoch: 06 July)

Event Time Altitude Azimuth Distance (km) Brightness Sun altitude
Exits shadow 20:53:44 26° 204° (SSW) 1,516 4.6 -19.6°
Maximum altitude 20:56:41 54° 138° (SE) 955 4.1 -18.9°
Drops below altitude 10° 21:02:05 10° 61° (ENE) 2,345 7.3 -17.6°
Sets 21:04:36 0° 57° (ENE) 3,272 8.4 -17.1°
